Location: Days
(41.3591°N, 106.7339°W)
Time: 18:28:07
(UTC+00:00)

RS-15 - Pass Details

Date: 05 July 2022
Orbit: 1881 x 2163 km, 64.8° (Epoch: 15 August)

Event Time Altitude Azimuth Distance (km) Brightness Sun altitude
Rises 05:53:54 0° 326° (NW) 5,698 11.8 -23.4°
Reaches altitude 10° 05:57:24 10° 327° (NNW) 4,689 11.0 -23.6°
Maximum altitude 06:09:50 81° 56° (ENE) 2,149 8.1 -24.3°
Enters shadow 06:16:44 32° 141° (SE) 3,148 8.6 -24.6°
